Weather History for Pensacola, FL

Change the Weather History Date:

Tuesday, February 5, 2013

  Actual Average Record
Temperature  
Mean Temperature 61 °F 53 °F  
Max Temperature 67 °F 62 °F 77 °F (1975)
Min Temperature 55 °F 44 °F 15 °F (1996)
Degree Days  
Heating Degree Days 4 12  
Month to date heating degree days 45 63  
Since 1 July heating degree days 717 1074  
Cooling Degree Days 0 0  
Month to date cooling degree days 0 0  
Year to date cooling degree days 30 6  
Growing Degree Days 10 (Base 50)    
Moisture  
Dew Point 57 °F    
Average Humidity 83    
Maximum Humidity 93    
Minimum Humidity 73    
Precipitation  
Precipitation 0.33 in 0.18 in 5.75 in (1955)
Month to date precipitation 0.33 0.88  
Year to date precipitation 2.69 5.51  
Snow  
Snow 0.00 in 0.00 in - ()
Month to date snowfall 0.0 0.0  
Since 1 July snowfall 0.0 0.0  
Snow Depth 0.00 in    
Sea Level Pressure  
Sea Level Pressure 30.01 in    
Wind  
Wind Speed 3 mph (East)    
Max Wind Speed 9 mph    
Max Gust Speed 13 mph    
Visibility 10 miles    
Events Rain    
T = Trace of Precipitation, MM = Missing Value Source: NWS Daily Summary

Daily Weather History Graph

Daily Weather History Graph

Search for Another Location

Airport:

Trip Planner

Search our weather history database for the weather conditions in past years. The results will help you decide how hot, cold, wet, or windy it might be!

Date:

Astronomy

Feb. 05, 2013 Rise Set
Actual Time 6:36 AM CST 5:28 PM CST
Civil Twilight 6:12 AM CST 5:53 PM CST
Nautical Twilight 5:43 AM CST 6:22 PM CST
Astronomical Twilight 5:15 AM CST 6:50 PM CST
Moon 2:11 AM CST (2/5) 12:53 PM CST (2/5)
Length of Visible Light 11h 41m
Length of Day
10h 51m
Waning Crescent, 26% of the Moon is Illuminated
Feb 5
Waning Crescent
Feb 10
New
Feb 17
First Quarter
Feb 25
Full
Mar 4
Last Quarter

Hourly Weather History & Observations

Time (CST) Temp. Dew Point Humidity Pressure Visibility Wind Dir Wind Speed Gust Speed Precip Events Conditions
12:53 AM 57.9 °F 55.0 °F 90% 30.00 in 10.0 mi Calm Calm - 0.01 in Rain Light Rain
1:53 AM 57.9 °F 55.9 °F 93% 30.00 in 10.0 mi Calm Calm - 0.05 in Rain Light Rain
2:53 AM 57.0 °F 55.0 °F 93% 29.99 in 10.0 mi Calm Calm - 0.04 in Rain Light Rain
3:53 AM 57.0 °F 55.0 °F 93% 29.99 in 10.0 mi NE 3.5 mph - 0.01 in Rain Light Rain
4:53 AM 57.0 °F 55.0 °F 93% 30.00 in 7.0 mi Calm Calm - 0.06 in Rain Light Rain
5:53 AM 55.9 °F 54.0 °F 93% 30.02 in 4.0 mi East 3.5 mph - 0.14 in Rain Rain
6:53 AM 55.9 °F 54.0 °F 93% 30.02 in 10.0 mi East 5.8 mph - 0.02 in Rain Light Rain
7:53 AM 55.9 °F 54.0 °F 93% 30.02 in 10.0 mi East 5.8 mph - 0.00 in   Overcast
8:53 AM 57.9 °F 55.9 °F 93% 30.03 in 10.0 mi East 5.8 mph - N/A   Overcast
9:53 AM 59.0 °F 57.0 °F 93% 30.04 in 10.0 mi East 4.6 mph - N/A   Overcast
10:23 AM 60.8 °F 57.2 °F 88% 30.03 in 10.0 mi East 5.8 mph - N/A   Overcast
10:53 AM 64.0 °F 57.9 °F 80% 30.03 in 10.0 mi East 5.8 mph - N/A   Mostly Cloudy
11:53 AM 66.0 °F 57.9 °F 75% 30.02 in 10.0 mi ESE 5.8 mph - N/A   Overcast
12:24 PM 66.2 °F 57.2 °F 73% 30.00 in 10.0 mi ESE 8.1 mph - N/A   Overcast
12:53 PM 64.9 °F 57.9 °F 78% 30.00 in 10.0 mi East 5.8 mph - N/A   Overcast
1:53 PM 66.0 °F 57.9 °F 75% 29.99 in 10.0 mi East 5.8 mph - N/A   Overcast
2:44 PM 66.2 °F 57.2 °F 73% 29.97 in 10.0 mi East 9.2 mph - N/A   Mostly Cloudy
2:53 PM 66.0 °F 57.9 °F 75% 29.98 in 10.0 mi ENE 6.9 mph - N/A   Mostly Cloudy
3:00 PM 66.2 °F 57.2 °F 73% 29.97 in 10.0 mi East 6.9 mph - N/A   Overcast
3:53 PM 66.0 °F 57.9 °F 75% 29.97 in 10.0 mi East 4.6 mph - N/A   Overcast
4:53 PM 66.0 °F 59.0 °F 78% 29.98 in 10.0 mi Calm Calm - N/A   Overcast
5:53 PM 64.9 °F 59.0 °F 81% 29.99 in 10.0 mi Calm Calm - N/A   Overcast
6:29 PM 64.4 °F 57.2 °F 77% 29.98 in 10.0 mi NE 3.5 mph - N/A   Mostly Cloudy
6:53 PM 63.0 °F 57.9 °F 84% 29.99 in 10.0 mi NE 3.5 mph - N/A   Clear
7:53 PM 61.0 °F 57.9 °F 90% 30.01 in 10.0 mi Calm Calm - N/A   Partly Cloudy
8:48 PM 59.0 °F 57.2 °F 94% 30.02 in 10.0 mi Calm Calm - N/A   Mostly Cloudy
8:53 PM 60.1 °F 57.9 °F 93% 30.03 in 10.0 mi Calm Calm - N/A   Mostly Cloudy
9:53 PM 60.8 °F 57.2 °F 88% 30.02 in 10.0 mi Calm Calm - N/A   Partly Cloudy
10:53 PM 59.0 °F 55.9 °F 90% 30.04 in 10.0 mi Calm Calm - N/A   Clear
11:01 PM 59.0 °F 57.2 °F 94% 30.03 in 10.0 mi NNE 3.5 mph - N/A   Scattered Clouds
11:10 PM 59.0 °F 57.2 °F 94% 30.03 in 9.0 mi Calm Calm - N/A   Mostly Cloudy
11:18 PM 59.0 °F 57.2 °F 94% 30.03 in 9.0 mi ENE 4.6 mph - N/A   Mostly Cloudy
11:53 PM 59.0 °F 57.0 °F 93% 30.04 in 7.0 mi Calm Calm - N/A   Overcast